This is the latest recevied weather packets stored in our database for station/object N4DWK. If no packets are shown the sender has not sent any weather packets the latest 10 day(s).
| Time | Temp. | Humidity | Pressure | Rain* | Wind** | Luminosity | Snow |
|---|---|---|---|---|---|---|---|
| 1788530405 | 30° C | 77% | 1014.1 hPa | 0 mm | - | 109 W/m² | - |
| 1788530106 | 29.44° C | 78% | 1014 hPa | 0 mm | - | 260 W/m² | - |
| 1788529806 | 29.44° C | 79% | 1013.9 hPa | 0 mm | - | 146 W/m² | - |
| 1788529506 | 29.44° C | 79% | 1013.9 hPa | 0 mm | - | 83 W/m² | - |
| 1788529206 | 29.44° C | 79% | 1013.8 hPa | 0 mm | - | 86 W/m² | - |
| 1788528906 | 28.89° C | 79% | 1013.7 hPa | 0 mm | - | 49 W/m² | - |
| 1788528606 | 28.89° C | 79% | 1013.7 hPa | 0 mm | - | 49 W/m² | - |
| 1788528306 | 28.89° C | 80% | 1013.7 hPa | 0 mm | - | 84 W/m² | - |
| 1788528006 | 28.89° C | 80% | 1013.7 hPa | 0 mm | - | 237 W/m² | - |
| 1788527705 | 28.33° C | 81% | 1013.7 hPa | 0 mm | - | 278 W/m² | - |
| 1788527405 | 28.33° C | 81% | 1013.7 hPa | 0 mm | - | 269 W/m² | - |
| 1788527106 | 28.33° C | 82% | 1013.8 hPa | 0 mm | - | 255 W/m² | - |
| 1788526806 | 28.33° C | 81% | 1013.9 hPa | 0 mm | - | 236 W/m² | - |
| 1788526506 | 28.33° C | 82% | 1014 hPa | 0 mm | - | 211 W/m² | - |
| 1788526205 | 27.78° C | 82% | 1013.9 hPa | 0 mm | - | 188 W/m² | - |
| 1788525906 | 27.78° C | 83% | 1013.9 hPa | 0 mm | - | 171 W/m² | - |
| 1788525605 | 27.78° C | 84% | 1013.9 hPa | 0 mm | - | 158 W/m² | - |
| 1788525305 | 27.22° C | 84% | 1013.9 hPa | 0 mm | - | 155 W/m² | - |
| 1788525006 | 27.22° C | 85% | 1014 hPa | 0 mm | - | 132 W/m² | - |
| 1788524707 | 27.22° C | 86% | 1013.9 hPa | 0 mm | - | 128 W/m² | - |
| 1788524405 | 26.67° C | 86% | 1014 hPa | 0 mm | - | 114 W/m² | - |
| 1788524105 | 26.67° C | 87% | 1014.2 hPa | 0 mm | - | 104 W/m² | - |
| 1788523807 | 26.11° C | 87% | 1014.1 hPa | 0 mm | - | 42 W/m² | - |
| 1788523506 | 26.11° C | 88% | 1014 hPa | 0 mm | - | 95 W/m² | - |
| 1788523206 | 25.56° C | 89% | 1013.9 hPa | 0 mm | - | 42 W/m² | - |
* Rain latest hour (hover to see other rain measurements)
** Current wind speed in m/s (hover to see current wind gust speed)